When you browse on this site, cookies collect data to enhance your experience and personalize the content and advertising you see.
Visit our Privacy Policy to learn more. By continuing to use the site, you agree to this use of cookies and data.
  • In France
  • List of Countries
  • For 7 days
  • Water Temperature
  • Satellite Maps
  • Weather Map
  • Weather Widgets
  • user-avatar
    Login

    Hourly Weather Hobart

    Today, 23 January, Wednesday

    Time Temperature Precipitation Wind Pressure Humidity
    00:00 +16°C° 0 mm 2 mps 744 mmHg 88%
    01:00 +16°C° 0 mm 2 mps 745 mmHg 84%
    02:00 +14°C° 0.1 mm 3 mps 745 mmHg 85%
    03:00 +14°C° 0.1 mm 4 mps 746 mmHg 85%
    04:00 +11°C° 0 mm 6 mps 746 mmHg 83%
    05:00 +12°C° 0 mm 5 mps 747 mmHg 78%
    06:00 +12°C° 0 mm 5 mps 748 mmHg 73%
    07:00 +12°C° 0 mm 4 mps 749 mmHg 69%
    08:00 +14°C° 0 mm 4 mps 749 mmHg 61%
    09:00 +16°C° 0 mm 3 mps 749 mmHg 53%
    10:00 +18°C° 0 mm 3 mps 750 mmHg 42%
    11:00 +19°C° 0 mm 3 mps 750 mmHg 39%
    12:00 +19°C° 0 mm 3 mps 750 mmHg 37%
    13:00 +20°C° 0 mm 3 mps 750 mmHg 35%
    14:00 +20°C° 0 mm 3 mps 750 mmHg 36%
    15:00 +20°C° 0 mm 4 mps 750 mmHg 38%
    16:00 +18°C° 0 mm 4 mps 750 mmHg 41%
    17:00 +17°C° 0 mm 3 mps 751 mmHg 46%
    18:00 +16°C° 0 mm 3 mps 751 mmHg 51%
    19:00 +15°C° 0 mm 2 mps 751 mmHg 55%
    20:00 +13°C° 0 mm 2 mps 751 mmHg 63%
    21:00 +12°C° 0 mm 2 mps 752 mmHg 71%
    22:00 +11°C° 0 mm 1 mps 752 mmHg 79%
    23:00 +10°C° 0 mm 1 mps 752 mmHg 81%

    Tomorrow, 24 January, Thursday

    Time Temperature Precipitation Wind Pressure Humidity
    00:00 +10°C° 0 mm 1 mps 752 mmHg 82%
    01:00 +10°C° 0 mm 1 mps 751 mmHg 84%
    02:00 +10°C° 0 mm 1 mps 751 mmHg 85%
    03:00 +9°C° 0 mm 1 mps 751 mmHg 85%
    04:00 +8°C° 0 mm 2 mps 751 mmHg 86%
    05:00 +10°C° 0 mm 2 mps 751 mmHg 79%
    06:00 +12°C° 0 mm 2 mps 751 mmHg 71%
    07:00 +14°C° 0 mm 2 mps 751 mmHg 64%
    08:00 +17°C° 0 mm 2 mps 750 mmHg 55%
    09:00 +20°C° 0 mm 2 mps 750 mmHg 47%
    10:00 +22°C° 0 mm 3 mps 749 mmHg 38%
    11:00 +25°C° 0 mm 3 mps 749 mmHg 36%
    12:00 +26°C° 0 mm 4 mps 749 mmHg 33%
    13:00 +27°C° 0 mm 4 mps 748 mmHg 31%
    14:00 +28°C° 0 mm 5 mps 748 mmHg 31%
    15:00 +28°C° 0 mm 5 mps 747 mmHg 31%
    16:00 +29°C° 0 mm 5 mps 746 mmHg 32%
    17:00 +28°C° 0 mm 5 mps 746 mmHg 35%
    18:00 +27°C° 0 mm 5 mps 745 mmHg 39%
    19:00 +26°C° 0 mm 5 mps 745 mmHg 43%
    20:00 +23°C° 0 mm 5 mps 744 mmHg 46%
    21:00 +22°C° 0 mm 5 mps 744 mmHg 49%
    22:00 +21°C° 0 mm 5 mps 743 mmHg 53%
    23:00 +21°C° 0 mm 5 mps 742 mmHg 50%

    Day after tomorrow, 25 January, Friday

    Time Temperature Precipitation Wind Pressure Humidity
    00:00 +21°C° 0 mm 4 mps 742 mmHg 48%
    01:00 +21°C° 0 mm 4 mps 741 mmHg 45%
    02:00 +22°C° 0 mm 4 mps 740 mmHg 43%
    03:00 +23°C° 0 mm 4 mps 739 mmHg 41%
    04:00 +25°C° 0 mm 4 mps 739 mmHg 38%
    05:00 +27°C° 0 mm 4 mps 739 mmHg 35%
    06:00 +29°C° 0 mm 5 mps 739 mmHg 33%
    07:00 +32°C° 0 mm 5 mps 739 mmHg 30%
    08:00 +34°C° 0 mm 5 mps 738 mmHg 27%
    09:00 +38°C° 0 mm 6 mps 738 mmHg 24%
    10:00 +40°C° 0 mm 6 mps 738 mmHg 21%
    11:00 +40°C° 0 mm 6 mps 737 mmHg 23%
    12:00 +40°C° 0 mm 5 mps 737 mmHg 25%
    13:00 +39°C° 0 mm 5 mps 737 mmHg 26%
    14:00 +37°C° 0 mm 5 mps 736 mmHg 29%
    15:00 +37°C° 0 mm 5 mps 736 mmHg 31%
    16:00 +36°C° 0 mm 5 mps 736 mmHg 33%
    17:00 +33°C° 0 mm 4 mps 736 mmHg 36%
    18:00 +30°C° 0 mm 3 mps 736 mmHg 39%
    19:00 +27°C° 0 mm 2 mps 737 mmHg 42%
    20:00 +25°C° 0 mm 2 mps 737 mmHg 48%
    21:00 +23°C° 0 mm 2 mps 737 mmHg 54%
    22:00 +20°C° 0 mm 2 mps 738 mmHg 61%
    23:00 +19°C° 0 mm 3 mps 738 mmHg 65%

    26 January, Saturday

    Time Temperature Precipitation Wind Pressure Humidity
    00:00 +19°C° 0 mm 3 mps 739 mmHg 69%
    01:00 +18°C° 0 mm 3 mps 739 mmHg 73%
    02:00 +18°C° 0 mm 3 mps 740 mmHg 73%
    03:00 +17°C° 0 mm 3 mps 740 mmHg 74%
    04:00 +16°C° 0 mm 2 mps 740 mmHg 75%
    05:00 +17°C° 0 mm 2 mps 741 mmHg 71%
    06:00 +17°C° 0 mm 2 mps 741 mmHg 68%
    07:00 +18°C° 0 mm 1 mps 742 mmHg 64%
    08:00 +20°C° 0 mm 1 mps 742 mmHg 57%
    09:00 +22°C° 0 mm 1 mps 742 mmHg 50%
    10:00 +24°C° 0 mm 1 mps 742 mmHg 42%
    11:00 +26°C° 0 mm 1 mps 742 mmHg 38%
    12:00 +28°C° 0 mm 2 mps 742 mmHg 34%
    13:00 +30°C° 0 mm 2 mps 741 mmHg 30%
    14:00 +27°C° 0 mm 3 mps 741 mmHg 38%
    15:00 +25°C° 0 mm 4 mps 740 mmHg 46%
    16:00 +22°C° 0 mm 5 mps 740 mmHg 54%
    17:00 +20°C° 0 mm 4 mps 740 mmHg 63%
    18:00 +18°C° 0 mm 3 mps 740 mmHg 73%
    19:00 +16°C° 0 mm 2 mps 740 mmHg 83%
    20:00 +16°C° 0 mm 2 mps 740 mmHg 85%
    21:00 +16°C° 0 mm 3 mps 740 mmHg 87%
    22:00 +14°C° 0 mm 3 mps 740 mmHg 88%
    23:00 +14°C° 0 mm 3 mps 740 mmHg 84%

    27 January, Sunday

    Time Temperature Precipitation Wind Pressure Humidity
    00:00 +13°C° 0 mm 3 mps 740 mmHg 81%
    01:00 +14°C° 0 mm 2 mps 739 mmHg 77%
    02:00 +13°C° 0 mm 2 mps 740 mmHg 77%
    03:00 +13°C° 0 mm 2 mps 740 mmHg 77%
    04:00 +13°C° 0 mm 2 mps 740 mmHg 78%
    05:00 +13°C° 0 mm 3 mps 741 mmHg 71%
    06:00 +16°C° 0 mm 3 mps 741 mmHg 65%
    07:00 +17°C° 0 mm 4 mps 741 mmHg 59%
    08:00 +17°C° 0 mm 4 mps 742 mmHg 57%
    09:00 +18°C° 0 mm 4 mps 742 mmHg 55%
    10:00 +17°C° 0 mm 5 mps 742 mmHg 54%
    11:00 +19°C° 0 mm 5 mps 742 mmHg 51%
    12:00 +20°C° 0 mm 5 mps 742 mmHg 49%
    13:00 +20°C° 0 mm 6 mps 742 mmHg 47%
    14:00 +20°C° 0 mm 6 mps 742 mmHg 47%
    15:00 +19°C° 0 mm 6 mps 742 mmHg 47%
    16:00 +19°C° 0 mm 5 mps 743 mmHg 47%
    17:00 +17°C° 0 mm 5 mps 743 mmHg 50%
    18:00 +16°C° 0 mm 5 mps 743 mmHg 54%
    19:00 +15°C° 0 mm 4 mps 744 mmHg 57%
    20:00 +14°C° 0 mm 4 mps 744 mmHg 63%
    21:00 +13°C° 0 mm 3 mps 744 mmHg 69%
    22:00 +12°C° 0 mm 3 mps 745 mmHg 74%
    23:00 +12°C° 0 mm 3 mps 745 mmHg 75%

    28 January, Monday

    Time Temperature Precipitation Wind Pressure Humidity
    00:00 +11°C° 0 mm 3 mps 744 mmHg 76%
    01:00 +11°C° 0 mm 3 mps 744 mmHg 77%
    02:00 +11°C° 0 mm 3 mps 744 mmHg 76%
    03:00 +11°C° 0 mm 3 mps 744 mmHg 75%
    04:00 +11°C° 0 mm 3 mps 743 mmHg 74%
    05:00 +12°C° 0 mm 3 mps 743 mmHg 68%
    06:00 +14°C° 0 mm 3 mps 743 mmHg 63%
    07:00 +15°C° 0 mm 4 mps 743 mmHg 58%
    08:00 +18°C° 0 mm 4 mps 743 mmHg 52%
    09:00 +21°C° 0 mm 5 mps 743 mmHg 46%
    10:00 +23°C° 0 mm 6 mps 743 mmHg 40%
    11:00 +26°C° 0 mm 6 mps 742 mmHg 36%
    12:00 +28°C° 0 mm 7 mps 742 mmHg 32%
    13:00 +29°C° 0 mm 7 mps 742 mmHg 28%
    14:00 +28°C° 0 mm 7 mps 742 mmHg 31%
    15:00 +27°C° 0 mm 7 mps 742 mmHg 33%
    16:00 +27°C° 0 mm 8 mps 742 mmHg 36%
    17:00 +24°C° 0 mm 7 mps 742 mmHg 43%
    18:00 +22°C° 0 mm 6 mps 742 mmHg 51%
    19:00 +20°C° 0 mm 5 mps 743 mmHg 58%
    20:00 +19°C° 0 mm 4 mps 743 mmHg 62%
    21:00 +18°C° 0 mm 3 mps 744 mmHg 65%
    22:00 +17°C° 0 mm 2 mps 745 mmHg 69%
    23:00 +17°C° 0 mm 2 mps 745 mmHg 70%
    Show more